Wind_Speed
28 28 29 29 29 30 30 30 31 32 32 33 33 34 34 34 35 35 35 36 36 36 37 37 38 38 39 39 39 40 40 40 40 40 40 40 41 41 41 42 42 43 43
29 29 29 30 30 31 31 32 33 33 34 34 34 35 35 35 35 36 36 36 36 37 37 38 39 39 40 40 41 41 41 41 41 42 42 42 42 42 42 43 43 43 44
30 30 30 31 31 32 33 34 34 35 35 35 35 36 36 36 36 36 36 37 37 38 38 39 39 40 40 41 41 41 42 42 42 43 43 43 44 44 44 44 44 45 45
31 31 32 33 33 34 34 34 35 36 36 36 37 37 37 37 37 37 37 38 38 39 39 39 40 40 41 41 42 42 43 43 43 43 44 44 44 44 44 45 45 45 45
32 33 33 34 34 35 35 36 36 37 37 38 38 38 38 38 38 38 38 39 39 40 40 40 41 41 42 42 43 43 43 43 44 44 44 44 44 44 44 44 44 44 45
33 34 34 35 35 35 36 37 38 38 38 39 39 39 39 39 39 39 40 40 41 41 41 41 42 42 43 43 44 44 44 44 44 44 45 45 45 45 45 45 45 45 45
34 35 35 36 36 36 37 38 39 39 39 39 39 39 39 39 40 40 41 42 42 42 42 42 43 43 44 44 45 45 45 45 45 45 45 45 45 45 45 46 46 46 46
35 36 36 36 37 37 38 38 39 39 40 40 39 39 39 40 40 41 42 43 43 43 43 43 44 44 45 45 46 46 46 46 46 46 46 46 46 47 47 47 47 47 47
36 36 36 37 37 38 38 39 40 40 40 40 40 40 40 40 41 41 42 43 43 43 44 45 45 46 46 47 47 47 47 47 47 47 48 48 48 48 49 49 49 49 49
36 36 37 37 37 38 39 40 40 40 40 40 40 41 41 41 42 41 41 43 44 45 46 46 47 47 47 47 47 47 48 48 48 49 49 49 49 49 50 50 50 50 51
37 37 37 37 38 39 39 40 40 40 40 40 41 41 42 42 43 43 43 44 45 46 47 48 48 48 48 48 48 49 49 49 49 50 50 50 51 51 52 52 52 53 53
37 37 37 38 38 39 39 40 40 40 40 41 41 42 42 43 43 44 44 44 45 46 47 48 48 49 49 49 50 50 50 50 50 51 51 52 52 53 54 54 55 55 56
37 37 38 38 39 39 39 40 40 40 41 41 41 42 43 44 45 45 45 45 45 45 46 47 48 49 50 50 51 52 52 52 52 53 54 55 55 56 57 57 58 59 59
37 38 38 38 39 39 39 40 40 41 41 41 42 43 43 44 45 46 46 46 46 46 47 48 49 50 51 52 53 53 53 54 55 56 57 58 59 60 61 61 62 63 63
37 38 38 38 38 39 40 40 40 41 41 42 43 43 44 45 46 46 47 48 49 48 48 49 51 52 53 54 54 55 56 57 58 59 61 62 63 64 64 65 65 66 66
37 37 38 38 39 40 40 41 40 41 41 42 43 43 44 45 46 48 49 50 51 51 51 52 53 55 56 56 57 58 59 60 62 63 64 64 65 65 65 66 66 67 67
36 36 37 38 39 39 40 40 40 41 42 42 43 44 45 47 48 49 51 52 53 54 54 55 56 57 58 59 60 61 62 63 64 64 65 65 66 66 67 67 68 68 69
36 37 38 38 39 39 40 40 41 41 42 43 44 45 46 48 49 51 52 53 54 56 57 57 57 58 59 60 62 63 64 65 65 66 67 67 67 68 69 69 69 69 69
36 37 37 38 38 39 40 40 41 41 42 43 45 46 48 49 51 52 54 55 56 58 58 59 59 60 61 63 64 65 66 67 67 67 67 68 68 68 68 68 67 67 67
36 37 37 37 38 39 39 40 41 42 43 44 46 47 49 51 52 54 55 57 58 58 60 61 61 63 64 66 66 67 67 67 68 68 68 68 68 68 67 66 65 65 64
35 36 36 37 38 39 40 40 41 43 44 46 47 49 50 52 53 55 57 57 59 60 61 62 64 65 66 67 68 68 68 67 67 67 66 66 66 65 64 63 62 61 61
35 36 37 38 39 39 40 41 42 44 45 47 49 50 51 53 55 56 57 59 60 61 63 64 66 67 67 68 68 69 68 67 64 63 63 63 64 62 60 59 58 57 57
35 36 37 38 39 40 41 42 43 45 46 48 50 51 53 54 56 56 58 60 61 63 65 66 67 67 68 68 69 68 67 65 63 62 61 60 59 58 57 56 55 55 54
35 36 37 38 39 40 41 43 44 45 47 49 50 52 53 55 56 57 59 60 62 64 66 67 67 68 68 68 68 66 64 62 60 59 59 57 55 55 54 54 54 53 51
36 37 38 39 40 41 42 43 45 46 48 50 51 53 55 56 57 59 60 62 63 64 66 67 67 67 67 67 66 64 61 60 57 55 55 54 53 51 50 50 49 48 46
36 37 38 39 40 41 42 44 46 48 49 51 52 54 55 57 58 60 62 63 63 64 65 65 65 66 66 65 63 61 59 57 55 53 51 51 49 48 46 45 44 43 41
Wind_Direction
292 293 292 293 294 294 295 295 296 296 296 297 297 297 297 297 297 297 296 296 295 294 294 293 293 292 291 290 289 288 287 286 285 283 282 281 280 279 279 278 276 275 274
291 292 292 292 293 294 294 295 296 296 296 297 297 297 297 297 297 297 296 296 295 295 294 293 293 293 292 291 290 289 287 286 286 285 283 283 282 281 280 279 278 277 276
290 290 291 292 293 293 294 294 295 295 296 296 297 297 297 297 297 297 296 295 295 295 294 294 293 293 292 292 290 289 288 287 286 285 284 284 283 282 281 280 279 278 277
289 290 291 292 292 292 293 293 294 294 295 296 297 297 297 297 297 297 296 296 295 295 295 295 295 294 293 292 291 290 289 288 287 286 286 285 284 283 282 281 280 279 278
289 290 291 292 292 292 292 293 293 294 295 296 297 297 297 297 297 297 297 296 296 296 296 296 296 295 295 294 293 292 291 290 288 287 287 286 285 284 283 282 281 280 278
289 290 291 291 291 292 292 293 293 294 295 295 296 296 296 297 297 297 297 297 297 297 297 297 297 297 296 295 295 294 292 291 290 288 287 286 285 284 283 282 281 280 279
289 290 290 291 291 291 292 293 293 294 295 295 296 296 297 297 298 298 298 298 299 298 298 298 298 298 298 297 296 295 293 292 291 290 288 287 286 285 284 282 281 281 280
288 289 290 290 290 291 292 292 293 294 295 296 296 297 297 297 298 298 298 299 299 299 299 299 299 298 298 298 297 296 294 293 292 290 289 288 286 285 284 283 282 281 280
289 289 290 290 291 291 292 292 293 294 295 296 297 297 297 297 297 298 298 299 299 300 300 300 300 299 299 298 297 296 295 293 292 291 290 289 288 286 285 284 283 281 280
289 289 290 291 291 291 292 292 294 295 296 297 297 297 298 298 298 298 298 299 299 300 300 300 300 300 300 299 298 297 296 294 294 293 291 290 289 288 286 285 284 282 281
288 289 290 291 291 292 293 294 295 296 296 297 297 298 299 299 299 299 299 299 300 301 301 301 301 301 300 300 299 298 297 295 295 293 292 291 290 289 287 286 285 284 282
288 289 290 291 292 293 294 294 295 296 296 297 298 298 299 299 299 299 300 300 301 302 302 302 302 301 301 300 299 298 297 296 295 294 292 291 290 289 288 287 286 285 283
288 289 290 291 292 293 295 295 296 296 297 297 298 298 299 299 300 300 301 301 301 302 302 302 302 302 301 301 300 299 298 297 296 294 293 292 291 290 289 287 286 285 284
288 289 290 292 292 293 294 295 296 297 297 297 298 299 299 300 300 301 301 302 302 302 302 302 302 301 301 300 300 299 298 297 296 295 294 293 292 291 290 288 287 286 284
288 289 290 291 292 293 294 295 296 296 297 297 298 299 299 300 300 301 302 303 303 303 303 303 302 302 301 301 300 299 299 298 297 296 295 294 293 292 290 289 288 286 284
289 290 291 291 292 293 294 295 296 297 297 298 299 299 299 300 301 302 302 303 304 304 304 304 303 303 302 301 301 300 299 299 298 297 296 295 294 292 291 290 289 287 286
289 290 291 291 292 293 294 295 296 297 298 298 299 299 299 300 301 302 303 304 304 304 304 304 304 303 303 302 302 301 301 300 299 299 298 296 295 294 293 291 290 288 286
289 290 291 292 293 293 294 295 296 297 298 298 299 299 300 301 302 302 303 303 304 304 305 305 304 304 304 303 303 302 302 301 300 299 298 297 296 295 294 293 291 289 288
289 290 291 292 293 294 295 296 297 297 298 298 299 299 300 301 302 302 303 303 304 305 305 305 305 305 305 304 304 303 302 301 300 299 298 298 297 296 295 293 292 290 289
289 290 291 292 293 294 295 295 296 297 298 298 299 300 300 301 302 302 303 304 304 305 305 306 306 306 305 305 304 303 302 301 300 299 299 298 298 297 296 294 293 292 290
289 290 291 292 293 294 295 296 297 297 298 298 299 300 301 302 302 303 303 304 305 306 306 306 306 306 306 305 305 304 303 302 301 300 300 299 299 299 298 296 295 293 293
290 290 291 292 293 294 295 296 296 297 298 299 300 301 302 302 303 303 304 305 306 307 307 307 307 307 306 306 306 305 305 304 303 301 299 300 300 299 298 297 296 295 295
290 291 292 293 294 295 295 296 296 298 299 301 302 302 302 303 303 304 305 306 307 307 307 307 308 308 307 307 307 307 307 306 305 303 302 302 301 300 299 298 298 297 296
291 292 293 294 294 295 295 296 297 299 301 302 302 303 303 303 304 305 306 306 307 308 307 307 308 308 308 308 308 308 308 307 306 305 304 304 303 302 301 300 299 298 298
292 293 294 295 295 296 296 297 299 301 302 303 303 304 304 304 305 306 306 307 308 308 308 308 308 308 309 309 309 308 308 308 308 307 306 306 305 304 303 302 301 300 299
293 294 295 295 296 297 298 299 301 302 303 304 304 305 305 305 306 307 308 308 309 309 308 308 309 309 309 309 309 309 308 309 309 308 308 308 307 306 305 304 302 302 301
Height
5829 5828 5826 5824 5822 5820 5819 5816 5814 5812 5810 5808 5806 5803 5801 5799 5796 5794 5791 5789 5787 5784 5782 5780 5778 5775 5773 5771 5769 5767 5765 5763 5761 5759 5758 5756 5755 5753 5752 5751 5750 5750 5749
5823 5822 5820 5818 5816 5814 5812 5810 5808 5806 5804 5801 5799 5796 5794 5792 5789 5787 5784 5782 5779 5777 5775 5772 5770 5767 5765 5762 5760 5758 5756 5754 5752 5750 5748 5747 5745 5744 5742 5741 5740 5739 5739
5817 5816 5814 5812 5810 5808 5806 5804 5801 5799 5797 5795 5792 5790 5787 5785 5782 5780 5777 5775 5772 5769 5767 5764 5762 5759 5756 5754 5751 5749 5747 5744 5742 5740 5738 5737 5735 5734 5732 5731 5730 5729 5728
5811 5810 5808 5806 5804 5801 5799 5797 5795 5793 5790 5788 5785 5783 5780 5777 5775 5772 5769 5767 5764 5762 5759 5756 5753 5751 5748 5745 5743 5740 5738 5735 5733 5730 5728 5727 5725 5723 5722 5720 5719 5718 5717
5805 5803 5801 5799 5797 5795 5792 5790 5788 5785 5783 5781 5778 5775 5773 5770 5767 5765 5762 5759 5756 5753 5750 5747 5745 5742 5739 5736 5733 5730 5728 5725 5723 5721 5718 5716 5714 5712 5711 5709 5708 5707 5705
5799 5797 5795 5792 5790 5788 5785 5783 5781 5778 5776 5773 5770 5768 5765 5762 5759 5757 5754 5751 5748 5745 5742 5739 5736 5732 5729 5726 5723 5721 5718 5715 5713 5710 5708 5705 5703 5701 5700 5698 5697 5695 5694
5792 5789 5787 5785 5783 5781 5778 5776 5773 5771 5768 5765 5763 5760 5757 5754 5751 5748 5745 5742 5739 5736 5733 5730 5726 5723 5720 5717 5714 5710 5707 5704 5702 5699 5697 5695 5692 5690 5688 5687 5685 5684 5682
5784 5782 5780 5778 5776 5773 5771 5768 5766 5763 5760 5758 5755 5752 5750 5748 5744 5740 5737 5733 5730 5727 5723 5720 5717 5714 5710 5707 5703 5700 5697 5694 5691 5688 5686 5683 5681 5679 5677 5675 5673 5671 5670
5777 5775 5773 5770 5768 5766 5763 5761 5758 5755 5753 5750 5747 5744 5741 5739 5736 5733 5729 5725 5721 5718 5714 5710 5707 5703 5700 5696 5693 5689 5686 5683 5680 5677 5674 5671 5669 5666 5664 5662 5660 5658 5657
5769 5767 5765 5763 5761 5758 5756 5753 5750 5747 5745 5742 5739 5736 5733 5729 5727 5724 5721 5717 5713 5709 5705 5701 5697 5693 5689 5685 5682 5678 5674 5671 5668 5665 5662 5659 5656 5653 5651 5648 5646 5645 5643
5762 5760 5757 5755 5752 5750 5748 5745 5742 5739 5736 5734 5731 5727 5724 5721 5717 5714 5712 5708 5704 5699 5694 5690 5686 5682 5678 5674 5670 5666 5663 5659 5655 5652 5649 5646 5643 5640 5637 5634 5632 5630 5628
5754 5752 5750 5747 5745 5742 5740 5737 5734 5731 5728 5725 5722 5719 5715 5712 5708 5705 5702 5698 5695 5690 5685 5680 5675 5671 5667 5663 5658 5654 5650 5646 5643 5639 5635 5632 5629 5626 5622 5620 5617 5615 5612
5746 5744 5742 5739 5737 5734 5731 5729 5726 5723 5720 5717 5713 5710 5706 5703 5699 5695 5691 5688 5685 5681 5675 5670 5665 5660 5655 5651 5646 5642 5638 5633 5629 5625 5621 5618 5614 5610 5607 5604 5601 5598 5595
5738 5736 5733 5731 5728 5726 5723 5721 5718 5715 5711 5708 5705 5701 5697 5693 5689 5685 5681 5677 5674 5670 5666 5660 5654 5649 5644 5639 5634 5629 5625 5620 5615 5611 5606 5602 5597 5593 5589 5586 5582 5579 5576
5730 5728 5725 5723 5720 5718 5715 5712 5709 5706 5703 5699 5696 5692 5688 5683 5679 5675 5670 5666 5662 5658 5655 5650 5643 5637 5631 5626 5620 5615 5610 5605 5600 5595 5590 5585 5580 5575 5571 5566 5562 5559 5556
5722 5720 5717 5715 5712 5710 5707 5704 5701 5697 5694 5690 5687 5683 5678 5674 5670 5665 5660 5655 5650 5646 5642 5638 5631 5624 5618 5612 5606 5600 5595 5589 5584 5578 5572 5566 5561 5556 5551 5546 5542 5537 5534
5714 5712 5709 5707 5704 5701 5698 5695 5692 5688 5685 5681 5677 5673 5669 5664 5660 5655 5649 5644 5639 5633 5628 5625 5617 5610 5604 5597 5591 5584 5578 5572 5566 5559 5553 5547 5541 5536 5530 5525 5520 5516 5512
5706 5703 5701 5698 5695 5693 5690 5687 5683 5680 5676 5672 5668 5664 5659 5654 5649 5644 5638 5633 5627 5620 5615 5610 5604 5596 5589 5582 5576 5569 5561 5554 5547 5541 5534 5527 5521 5515 5509 5504 5498 5494 5489
5697 5695 5692 5690 5687 5684 5681 5678 5674 5671 5667 5663 5658 5654 5649 5644 5639 5633 5627 5621 5614 5607 5601 5595 5589 5582 5575 5567 5560 5552 5544 5536 5528 5521 5514 5507 5501 5494 5488 5482 5477 5472 5467
5688 5686 5684 5681 5678 5675 5672 5669 5665 5661 5657 5653 5648 5644 5639 5633 5627 5621 5615 5608 5601 5594 5587 5580 5574 5567 5559 5550 5542 5535 5528 5519 5510 5502 5495 5488 5481 5474 5468 5461 5456 5451 5446
5680 5678 5675 5672 5669 5666 5663 5660 5656 5652 5648 5643 5638 5633 5627 5622 5615 5609 5602 5595 5588 5581 5573 5566 5559 5551 5543 5533 5525 5517 5509 5501 5493 5484 5477 5469 5462 5455 5448 5441 5436 5431 5426
5672 5669 5666 5664 5661 5657 5654 5650 5646 5642 5638 5633 5628 5622 5616 5610 5603 5596 5589 5582 5574 5566 5558 5551 5543 5534 5525 5516 5507 5498 5489 5482 5476 5468 5460 5453 5444 5438 5430 5424 5418 5413 5408
5663 5661 5658 5655 5652 5648 5644 5640 5636 5632 5627 5622 5617 5611 5605 5598 5591 5584 5577 5569 5560 5551 5543 5535 5526 5517 5508 5500 5490 5481 5472 5463 5456 5448 5441 5436 5428 5421 5414 5407 5402 5396 5391
5654 5652 5649 5645 5642 5639 5635 5631 5626 5622 5616 5611 5605 5599 5593 5586 5578 5571 5564 5556 5547 5538 5528 5519 5510 5501 5492 5482 5473 5464 5455 5447 5440 5432 5423 5419 5412 5406 5399 5392 5385 5380 5375
5645 5642 5639 5636 5632 5629 5624 5620 5616 5611 5606 5600 5593 5587 5580 5573 5566 5558 5551 5543 5534 5524 5513 5503 5494 5485 5475 5466 5456 5448 5440 5432 5426 5419 5409 5403 5397 5391 5385 5378 5371 5366 5361
5636 5633 5629 5626 5622 5618 5614 5610 5605 5600 5595 5589 5582 5575 5568 5560 5552 5544 5536 5527 5519 5510 5500 5490 5480 5470 5460 5451 5441 5432 5425 5418 5411 5405 5398 5390 5384 5377 5373 5367 5360 5354 5349